Point Hope, AK

11:37 AM AKST on December 15, 2017 (GMT -0900)
Point Hope

Weather History for PAPO - March, 2013

Change the Weather History Date:

Friday, March 1, 2013

  Actual Average Record
Temperature  
Mean Temperature -10 °F -  
Max Temperature -5 °F 3 °F 26 °F (2014)
Min Temperature -14 °F -2 °F -25 °F (1998)
Degree Days  
Heating Degree Days 74    
Moisture  
Dew Point -20 °F    
Average Humidity 65    
Maximum Humidity 71    
Minimum Humidity 54    
Precipitation  
Precipitation 0.00 in - - ()
Sea Level Pressure  
Sea Level Pressure 30.06 in    
Wind  
Wind Speed 8 mph (SW)    
Max Wind Speed 14 mph    
Max Gust Speed -    
Visibility 10 miles    
Events      
Averages and records for this station are not official NWS values.
T = Trace of Precipitation, MM = Missing Value Source: NWS Daily Summary

Daily Weather History Graph

Daily Weather History Graph

Search for Another Location

Airport or City:

Trip Planner

Search our weather history database for the weather conditions in past years. The results will help you decide how hot, cold, wet, or windy it might be!

Date:

Astronomy

Mar. 01, 2013 Rise Set
Actual Time 9:25 AM AKST 7:15 PM AKST
Civil Twilight 8:28 AM AKST 8:12 PM AKST
Nautical Twilight 7:23 AM AKST 9:17 PM AKST
Astronomical Twilight 6:14 AM AKST 10:27 PM AKST
Moon 1:12 AM AKST (3/1) 8:52 AM AKST (3/1)
Length of Visible Light 11h 44m
Length of Day
9h 49m
Waning Gibbous, 82% of the Moon is Illuminated
Mar 1
Waning Gibbous
Mar 4
Last Quarter
Mar 11
New
Mar 19
First Quarter
Mar 27
Full

Hourly Weather History & Observations

Time (AKST) Temp. Windchill Dew Point Humidity Pressure Visibility Wind Dir Wind Speed Gust Speed Precip Events Conditions
12:16 AM -5.8 °F -23.4 °F -14.8 °F 65% 29.76 in 10.0 mi SW 10.4 mph - N/A   Overcast
12:56 AM -5.8 °F -23.4 °F -13.0 °F 71% 29.78 in 10.0 mi SSW 10.4 mph - N/A   Overcast
1:16 AM -5.8 °F -25.2 °F -14.8 °F 65% 29.79 in 10.0 mi SW 12.7 mph - N/A   Overcast
1:36 AM -5.8 °F -25.2 °F -14.8 °F 65% 29.80 in 10.0 mi SW 12.7 mph - N/A   Overcast
1:56 AM -5.8 °F -23.4 °F -14.8 °F 65% 29.80 in 10.0 mi SW 10.4 mph - N/A   Overcast
2:16 AM -5.8 °F -24.4 °F -14.8 °F 65% 29.81 in 10.0 mi SSW 11.5 mph - N/A   Overcast
3:36 AM -9.4 °F -30.6 °F -18.4 °F 65% 29.85 in 10.0 mi SW 13.8 mph - N/A   Overcast
3:56 AM -9.4 °F -29.8 °F -18.4 °F 65% 29.85 in 10.0 mi SW 12.7 mph - N/A   Overcast
4:16 AM -9.4 °F -28.9 °F -18.4 °F 65% 29.86 in 10.0 mi SW 11.5 mph - N/A   Overcast
4:36 AM -9.4 °F -29.8 °F -18.4 °F 65% 29.87 in 10.0 mi SW 12.7 mph - N/A   Overcast
4:56 AM -9.4 °F -27.9 °F -18.4 °F 65% 29.88 in 10.0 mi SW 10.4 mph - N/A   Overcast
5:16 AM -11.2 °F -31.1 °F -18.4 °F 70% 29.90 in 10.0 mi SW 11.5 mph - N/A   Overcast
5:36 AM -11.2 °F -30.1 °F -20.2 °F 64% 29.91 in 10.0 mi SW 10.4 mph - N/A   Overcast
5:56 AM -11.2 °F -32.1 °F -18.4 °F 70% 29.92 in 10.0 mi SW 12.7 mph - N/A   Overcast
6:16 AM -11.2 °F -29.0 °F -20.2 °F 64% 29.93 in 10.0 mi SW 9.2 mph - N/A   Overcast
6:36 AM -11.2 °F -30.1 °F -20.2 °F 64% 29.94 in 10.0 mi SW 10.4 mph - N/A   Overcast
6:56 AM -11.2 °F -29.0 °F -20.2 °F 64% 29.94 in 10.0 mi SW 9.2 mph - N/A   Overcast
7:16 AM -11.2 °F -30.1 °F -20.2 °F 64% 29.95 in 10.0 mi SW 10.4 mph - N/A   Overcast
7:36 AM -11.2 °F -31.1 °F -20.2 °F 64% 29.96 in 10.0 mi SW 11.5 mph - N/A   Overcast
7:56 AM -11.2 °F -30.1 °F -20.2 °F 64% 29.97 in 10.0 mi SW 10.4 mph - N/A   Overcast
8:16 AM -11.2 °F -29.0 °F -20.2 °F 64% 29.98 in 10.0 mi SW 9.2 mph - N/A   Overcast
8:36 AM -11.2 °F -30.1 °F -20.2 °F 64% 29.99 in 10.0 mi SW 10.4 mph - N/A   Overcast
8:56 AM -13.0 °F -31.3 °F -22.0 °F 64% 30.00 in 10.0 mi SW 9.2 mph - N/A   Overcast
9:16 AM -13.0 °F -33.4 °F -22.0 °F 64% 30.01 in 10.0 mi SW 11.5 mph - N/A   Overcast
9:36 AM -13.0 °F -31.3 °F -20.2 °F 70% 30.02 in 10.0 mi SW 9.2 mph - N/A   Overcast
9:56 AM -13.0 °F -28.6 °F -22.0 °F 64% 30.03 in 10.0 mi SW 6.9 mph - N/A   Overcast
10:16 AM -13.0 °F -30.0 °F -22.0 °F 64% 30.04 in 10.0 mi SW 8.1 mph - N/A   Overcast
10:36 AM -13.0 °F -30.0 °F -22.0 °F 64% 30.05 in 10.0 mi SW 8.1 mph - N/A   Overcast
10:56 AM -11.2 °F -26.4 °F -22.0 °F 59% 30.06 in 10.0 mi SW 6.9 mph - N/A   Unknown
11:16 AM -11.2 °F -26.4 °F -20.2 °F 64% 30.07 in 10.0 mi WSW 6.9 mph - N/A   Mostly Cloudy
11:36 AM -11.2 °F -24.8 °F -20.2 °F 64% 30.08 in 10.0 mi SW 5.8 mph - N/A   Unknown
11:56 AM -11.2 °F -23.0 °F -20.2 °F 64% 30.09 in 10.0 mi WSW 4.6 mph - N/A   Unknown
12:16 PM -9.4 °F -20.9 °F -18.4 °F 65% 30.10 in 10.0 mi WSW 4.6 mph - N/A   Clear
12:36 PM -9.4 °F -20.9 °F -22.0 °F 54% 30.11 in 10.0 mi West 4.6 mph - N/A   Clear
12:56 PM -9.4 °F -18.6 °F -18.4 °F 65% 30.12 in 10.0 mi West 3.5 mph - N/A   Clear
1:16 PM -11.2 °F - -22.0 °F 59% 30.12 in 10.0 mi Calm Calm - N/A   Clear
1:36 PM -11.2 °F - -20.2 °F 64% 30.13 in 6.0 mi Calm Calm - N/A   Clear
1:56 PM -11.2 °F - -20.2 °F 64% 30.14 in 10.0 mi Calm Calm - N/A   Clear
2:16 PM -11.2 °F -23.0 °F -20.2 °F 64% 30.14 in 10.0 mi ENE 4.6 mph - N/A   Clear
2:36 PM -11.2 °F -24.8 °F -20.2 °F 64% 30.15 in 10.0 mi ENE 5.8 mph - N/A   Clear
3:16 PM -9.4 °F -18.6 °F -18.4 °F 65% 30.16 in 10.0 mi ENE 3.5 mph - N/A   Unknown
3:36 PM -11.2 °F -23.0 °F -20.2 °F 64% 30.15 in 10.0 mi ENE 4.6 mph - N/A   Clear
3:56 PM -11.2 °F -20.6 °F -20.2 °F 64% 30.16 in 10.0 mi ENE 3.5 mph - N/A   Partly Cloudy
4:16 PM - - - N/A% 30.16 in - ENE 3.5 mph - N/A   Unknown
4:36 PM -9.4 °F -22.7 °F -18.4 °F 65% 30.17 in 10.0 mi East 5.8 mph - N/A   Clear
4:56 PM -11.2 °F -24.8 °F -20.2 °F 64% 30.16 in 1.5 mi ENE 5.8 mph - N/A   Clear
5:16 PM -11.2 °F -24.8 °F -20.2 °F 64% 30.17 in 10.0 mi ENE 5.8 mph - N/A   Clear
5:36 PM -11.2 °F -23.0 °F -22.0 °F 59% 30.17 in 10.0 mi ENE 4.6 mph - N/A   Clear
5:56 PM -11.2 °F -26.4 °F -20.2 °F 64% 30.17 in 10.0 mi ENE 6.9 mph - N/A   Clear
6:16 PM -14.8 °F -30.8 °F -23.8 °F 64% 30.17 in 10.0 mi ENE 6.9 mph - N/A   Clear
6:36 PM -14.8 °F -30.8 °F -25.6 °F 58% 30.17 in 10.0 mi ENE 6.9 mph - N/A   Clear
6:56 PM -14.8 °F -27.2 °F -23.8 °F 64% 30.17 in 10.0 mi NE 4.6 mph - N/A   Clear
7:16 PM -14.8 °F -29.1 °F -22.0 °F 70% 30.17 in 10.0 mi ENE 5.8 mph - N/A   Clear
7:36 PM -14.8 °F - -23.8 °F 64% 30.18 in 1.2 mi Calm Calm - N/A   Clear
7:56 PM -13.0 °F - -22.0 °F 64% 30.19 in 9.0 mi Calm Calm - N/A   Clear
8:16 PM -14.8 °F - -23.8 °F 64% 30.19 in 8.0 mi Calm Calm - N/A   Clear
8:36 PM -11.2 °F - -20.2 °F 64% 30.19 in 10.0 mi Calm Calm - N/A   Clear
8:56 PM -13.0 °F - -20.2 °F 70% 30.19 in 10.0 mi Calm Calm - N/A   Clear
9:16 PM -13.0 °F - -20.2 °F 70% 30.19 in 10.0 mi Calm Calm - N/A   Clear
9:36 PM -11.2 °F - -20.2 °F 64% 30.19 in 10.0 mi Calm Calm - N/A   Clear
9:56 PM -11.2 °F - -20.2 °F 64% 30.19 in 10.0 mi Calm Calm - N/A   Clear
10:16 PM -11.2 °F -23.0 °F -20.2 °F 64% 30.19 in 10.0 mi North 4.6 mph - N/A   Clear
10:36 PM -11.2 °F -24.8 °F -20.2 °F 64% 30.19 in 10.0 mi NNW 5.8 mph - N/A   Clear
10:56 PM -11.2 °F -26.4 °F -20.2 °F 64% 30.19 in 10.0 mi North 6.9 mph - N/A   Clear
11:16 PM -11.2 °F -27.8 °F -18.4 °F 70% 30.19 in 10.0 mi North 8.1 mph - N/A   Clear
11:36 PM -11.2 °F -26.4 °F -18.4 °F 70% 30.19 in 10.0 mi North 6.9 mph - N/A   Clear
11:56 PM -11.2 °F -24.8 °F -20.2 °F 64% 30.19 in 10.0 mi North 5.8 mph - N/A   Clear